FW8535 Weather Reports


time (UTC)temp
F
wind
direction
speed
knots
gust
knots
rain 1hr
in
rain 24hr
in
rain mn
in
humidity
%
barometer
mb
20260507200027 66 315 3.5 9.6 0.00 0.00 0.00 21 1009.8
20260507195529 65 259 2.6 7.8 0.00 0.00 0.00 21 1009.8
20260507195027 66 323 2.6 7.8 0.00 0.00 0.00 20 1009.9
20260507194534 66 306 3.5 9.6 0.00 0.00 0.00 21 1009.9
20260507193528 65 315 1.7 7.8 0.00 0.00 0.00 21 1010.1
20260507193028 65 218 1.7 8.7 0.00 0.00 0.00 21 1010.1
20260507192527 65 313 3.5 8.7 0.00 0.00 0.00 21 1010.1
20260507192025 64 315 3.5 10.4 0.00 0.00 0.00 22 1010.0
20260507191524 64 234 2.6 11.3 0.00 0.00 0.00 20 1010.1
20260507191023 64 331 3.5 8.7 0.00 0.00 0.00 21 1010.2
20260507190523 64 250 5.2 8.7 0.00 0.00 0.00 22 1010.2
20260507190037 63 34 2.6 7.8 0.00 0.00 0.00 22 1010.2
20260507185525 63 315 3.5 10.4 0.00 0.00 0.00 21 1010.4
20260507185020 63 355 2.6 10.4 0.00 0.00 0.00 22 1010.3
20260507184527 63 323 3.5 9.6 0.00 0.00 0.00 23 1010.4
20260507183514 62 218 3.5 6.1 0.00 0.00 0.00 24 1010.5
20260507183015 61 146 0.9 4.3 0.00 0.00 0.00 24 1010.6
20260507182512 61 146 0.9 8.7 0.00 0.00 0.00 23 1010.8
20260507182012 61 140 4.3 10.4 0.00 0.00 0.00 23 1010.8
20260507181511 61 80 5.2 10.4 0.00 0.00 0.00 23 1010.8
20260507181010 60 238 2.6 8.7 0.00 0.00 0.00 24 1011.0
20260507180510 60 323 4.3 8.7 0.00 0.00 0.00 24 1011.0
20260507180012 60 222 3.5 9.6 0.00 0.00 0.00 23 1011.0
20260507175509 60 266 5.2 9.6 0.00 0.00 0.00 24 1011.1
20260507175008 60 190 4.3 8.7 0.00 0.00 0.00 24 1011.0
20260507174511 60 117 3.5 7.0 0.00 0.00 0.00 24 1011.1
20260507173513 59 213 4.3 7.8 0.00 0.00 0.00 24 1011.1
20260507173017 59 222 1.7 5.2 0.00 0.00 0.00 25 1011.1
20260507172506 59 323 2.6 4.3 0.00 0.00 0.00 24 1011.1
20260507172007 59 150 2.6 7.0 0.00 0.00 0.00 24 1011.2
20260507171505 58 182 1.7 7.0 0.00 0.00 0.00 24 1011.2
20260507171004 58 187 3.5 7.0 0.00 0.00 0.00 24 1011.2
20260507170504 59 183 2.6 6.1 0.00 0.00 0.00 24 1011.4
20260507170005 58 105 2.6 6.1 0.00 0.00 0.00 24 1011.3
20260507165502 58 124 1.7 4.3 0.00 0.00 0.00 24 1011.4
20260507165001 58 107 1.7 5.2 0.00 0.00 0.00 25 1011.5
20260507164502 57 140 0.9 6.1 0.00 0.00 0.00 25 1011.5
20260507163601 57 173 3.5 4.3 0.00 0.00 0.00 25 1011.4
20260507163101 56 202 0.0 5.2 0.00 0.00 0.00 26 1011.5
20260507162559 56 202 3.5 5.2 0.00 0.00 0.00 24 1011.5
20260507162058 56 198 1.7 5.2 0.00 0.00 0.00 25 1011.6
20260507161600 55 224 0.9 5.2 0.00 0.00 0.00 26 1011.6
20260507161059 55 221 2.6 5.2 0.00 0.00 0.00 27 1011.8
20260507160555 54 202 3.5 6.1 0.00 0.00 0.00 28 1011.8
20260507160053 54 223 2.6 7.0 0.00 0.00 0.00 29 1011.9
20260507155553 53 193 2.6 6.1 0.00 0.00 0.00 29 1011.8
20260507155051 53 190 4.3 6.1 0.00 0.00 0.00 30 1011.8
20260507154553 52 201 3.5 6.1 0.00 0.00 0.00 30 1012.0
20260507154149 51 209 1.7 5.2 0.00 0.00 0.00 32 1011.8
20260507153549 51 209 0.0 5.2 0.00 0.00 0.00 31 1012.0
20260507153047 51 205 1.7 4.3 0.00 0.00 0.00 32 1012.0
20260507152548 50 217 0.9 3.5 0.00 0.00 0.00 32 1012.0
20260507152047 50 256 0.9 2.6 0.00 0.00 0.00 32 1012.1
20260507151548 50 256 0.9 2.6 0.00 0.00 0.00 32 1012.0
20260507151049 50 258 0.0 2.6 0.00 0.00 0.00 32 1011.9
20260507150543 49 258 0.9 2.6 0.00 0.00 0.00 34 1011.9
20260507150045 49 263 0.0 2.6 0.00 0.00 0.00 34 1012.0
20260507145541 48 267 0.0 1.7 0.00 0.00 0.00 35 1012.0
20260507145041 47 271 0.0 2.6 0.00 0.00 0.00 35 1012.0
20260507144539 46 271 0.9 2.6 0.00 0.00 0.00 36 1012.1
20260507143541 45 271 0.0 2.6 0.00 0.00 0.00 38 1012.2
20260507143044 44 271 0.0 2.6 0.00 0.00 0.00 38 1012.1
20260507142539 44 271 0.0 1.7 0.00 0.00 0.00 39 1012.3
20260507142037 43 271 0.0 1.7 0.00 0.00 0.00 41 1012.2
20260507141536 42 271 0.0 2.6 0.00 0.00 0.00 41 1012.3
20260507141038 42 271 0.9 2.6 0.00 0.00 0.00 40 1012.2
20260507140536 42 271 0.9 2.6 0.00 0.00 0.00 40 1012.2
20260507140039 42 272 0.0 2.6 0.00 0.00 0.00 40 1012.2
20260507135535 42 273 0.0 2.6 0.00 0.00 0.00 41 1012.2
20260507135033 42 273 0.0 1.7 0.00 0.00 0.00 42 1012.2
20260507134533 41 273 0.0 2.6 0.00 0.00 0.00 43 1012.2
20260507133526 40 279 0.0 1.7 0.00 0.00 0.00 45 1012.1
20260507133027 40 279 0.0 1.7 0.00 0.00 0.00 45 1012.3
20260507132523 39 289 0.0 0.0 0.00 0.00 0.00 44 1012.1
20260507132022 38 289 0.0 0.0 0.00 0.00 0.00 45 1012.4
20260507131521 37 289 0.0 0.9 0.00 0.00 0.00 45 1012.3
20260507131019 36 289 0.0 0.9 0.00 0.00 0.00 47 1012.3
20260507130522 35 289 0.0 0.9 0.00 0.00 0.00 47 1012.4
20260507130018 34 289 0.0 0.0 0.00 0.00 0.00 50 1012.2
20260507125518 33 289 0.0 0.0 0.00 0.00 0.00 52 1012.3
20260507125017 32 289 0.0 0.0 0.00 0.00 0.00 52 1012.2
20260507124521 32 289 0.0 0.0 0.00 0.00 0.00 53 1012.2
20260507123525 30 289 0.0 0.0 0.00 0.00 0.00 55 1012.2
20260507123025 30 289 0.0 0.0 0.00 0.00 0.00 56 1012.1
20260507122525 29 289 0.0 0.0 0.00 0.00 0.00 57 1012.0
20260507122024 29 289 0.0 0.0 0.00 0.00 0.00 57 1012.0
20260507121524 29 289 0.0 0.0 0.00 0.00 0.00 57 1012.0
20260507121024 29 289 0.0 0.0 0.00 0.00 0.00 56 1011.9
20260507120523 28 289 0.0 0.9 0.00 0.00 0.00 55 1011.9
20260507120023 28 289 0.0 0.9 0.00 0.00 0.00 56 1011.8
20260507115523 28 289 0.0 0.9 0.00 0.00 0.00 56 1011.8
20260507115024 28 289 0.0 0.9 0.00 0.00 0.00 56 1011.9
20260507114530 27 289 0.0 2.6 0.00 0.00 0.00 56 1011.7
20260507113513 28 289 0.0 0.0 0.00 0.00 0.00 54 1011.9
20260507113033 28 289 0.0 0.0 0.00 0.00 0.00 55 1011.9
20260507112512 28 289 0.0 0.0 0.00 0.00 0.00 55 1011.8
20260507112012 28 289 0.0 0.0 0.00 0.00 0.00 54 1011.8
20260507111512 28 289 0.0 0.0 0.00 0.00 0.00 55 1011.9
20260507111011 28 289 0.0 0.0 0.00 0.00 0.00 55 1011.9
20260507110511 28 289 0.0 0.0 0.00 0.00 0.00 54 1011.8
20260507110015 29 289 0.0 0.0 0.00 0.00 0.00 53 1011.8
20260507105508 29 289 0.0 0.0 0.00 0.00 0.00 54 1011.9
20260507105008 29 289 0.0 0.0 0.00 0.00 0.00 53 1011.9
20260507104508 29 289 0.0 0.0 0.00 0.00 0.00 53 1011.9
20260507103508 29 289 0.0 0.0 0.00 0.00 0.00 53 1011.8
20260507103008 29 289 0.0 0.0 0.00 0.00 0.00 52 1011.9
20260507102506 30 289 0.0 0.0 0.00 0.00 0.00 50 1011.9
20260507102006 30 289 0.0 0.0 0.00 0.00 0.00 50 1011.8
20260507101513 31 290 0.0 0.0 0.00 0.00 0.00 50 1011.7
20260507101005 31 290 0.0 0.0 0.00 0.00 0.00 49 1011.9
20260507100504 31 290 0.0 0.0 0.00 0.00 0.00 49 1011.8
20260507100005 31 290 0.0 0.0 0.00 0.00 0.00 49 1011.9
20260507095503 31 290 0.0 0.0 0.00 0.00 0.00 49 1011.8
20260507095003 31 290 0.0 0.0 0.00 0.00 0.00 49 1011.7
20260507094503 32 290 0.0 0.0 0.00 0.00 0.00 48 1011.9
20260507093505 31 290 0.0 0.0 0.00 0.00 0.00 49 1011.8
20260507093101 32 290 0.0 0.0 0.00 0.00 0.00 48 1011.9
20260507092502 31 290 0.0 1.7 0.00 0.00 0.00 49 1011.9
20260507092000 31 290 0.0 1.7 0.00 0.00 0.00 49 1011.9
20260507091635 31 290 0.9 1.7 0.00 0.00 0.00 49 1011.9
20260507091105 30 290 0.0 0.9 0.00 0.00 0.00 49 1012.0
20260507090559 31 290 0.0 1.7 0.00 0.00 0.00 48 1012.0
20260507090057 31 290 0.0 2.6 0.00 0.00 0.00 46 1011.9
20260507085555 32 290 0.0 2.6 0.00 0.00 0.00 47 1012.0
20260507085054 33 290 1.7 2.6 0.00 0.00 0.00 46 1011.9
20260507084604 33 283 0.9 2.6 0.00 0.00 0.00 47 1011.9
20260507084153 33 283 0.0 1.7 0.00 0.00 0.00 46 1012.1
20260507083555 33 283 0.0 1.7 0.00 0.00 0.00 46 1012.0
20260507083052 33 283 0.0 1.7 0.00 0.00 0.00 47 1012.1
20260507082552 33 283 0.0 0.0 0.00 0.00 0.00 46 1011.9
20260507082050 33 283 0.0 0.0 0.00 0.00 0.00 45 1012.0
20260507081557 34 283 0.0 0.0 0.00 0.00 0.00 44 1011.9
20260507081052 34 283 0.0 0.0 0.00 0.00 0.00 44 1012.0
20260507080550 34 283 0.0 0.9 0.00 0.00 0.00 44 1012.0
20260507080050 35 283 0.0 2.6 0.00 0.00 0.00 44 1012.0
20260507075552 34 283 1.7 2.6 0.00 0.00 0.00 45 1012.0
20260507075049 34 284 0.9 2.6 0.00 0.00 0.00 46 1012.0
20260507074555 33 284 0.0 1.7 0.00 0.00 0.00 46 1012.1
20260507074148 33 284 0.0 1.7 0.00 0.00 0.00 45 1012.0
20260507073548 34 284 0.9 2.6 0.00 0.00 0.00 44 1011.9
20260507073052 34 284 0.9 1.7 0.00 0.00 0.00 44 1011.9
20260507072547 35 284 0.9 1.7 0.00 0.00 0.00 44 1011.8
20260507072050 35 284 0.0 2.6 0.00 0.00 0.00 44 1011.9
20260507071547 35 284 0.9 2.6 0.00 0.00 0.00 44 1011.8
20260507071046 35 284 0.0 3.5 0.00 0.00 0.00 44 1011.8
20260507070545 34 285 1.7 3.5 0.00 0.00 0.00 44 1011.8
20260507070046 34 319 0.0 1.7 0.00 0.00 0.00 44 1011.9
20260507065542 34 321 0.9 1.7 0.00 0.00 0.00 43 1011.9
20260507065042 35 321 0.0 1.7 0.00 0.00 0.00 43 1012.0
20260507064541 35 321 0.0 2.6 0.00 0.00 0.00 42 1011.9
20260507064141 35 321 0.0 2.6 0.00 0.00 0.00 41 1011.9
20260507063542 35 321 0.0 0.9 0.00 0.00 0.00 42 1012.0
20260507063043 35 321 0.0 1.7 0.00 0.00 0.00 42 1011.9
20260507062541 35 321 0.9 2.6 0.00 0.00 0.00 42 1012.0
20260507062040 35 321 0.9 2.6 0.00 0.00 0.00 42 1011.9
20260507061540 35 321 0.9 2.6 0.00 0.00 0.00 41 1011.9
20260507061045 35 19 0.0 2.6 0.00 0.00 0.00 41 1012.0
20260507060539 36 32 0.0 1.7 0.00 0.00 0.00 41 1011.7
20260507060040 36 32 0.0 3.5 0.00 0.00 0.00 41 1012.0
20260507055539 35 32 0.9 7.0 0.00 0.00 0.00 40 1011.9
20260507055039 35 28 1.7 7.0 0.00 0.00 0.00 41 1011.9
20260507054539 35 141 0.0 2.6 0.00 0.00 0.00 43 1011.8
20260507054139 35 141 0.9 2.6 0.00 0.00 0.00 42 1011.7
20260507053539 36 85 0.9 1.7 0.00 0.00 0.00 39 1011.8
20260507053039 37 80 0.0 1.7 0.00 0.00 0.00 38 1011.9
20260507052544 38 79 0.0 2.6 0.00 0.00 0.00 39 1011.9
20260507052039 38 79 0.9 2.6 0.00 0.00 0.00 39 1012.0
20260507051539 38 78 0.9 1.7 0.00 0.00 0.00 39 1012.0
20260507051038 38 78 0.0 0.0 0.00 0.00 0.00 38 1012.1
20260507050537 38 78 0.0 2.6 0.00 0.00 0.00 37 1012.1
20260507050041 39 78 0.9 3.5 0.00 0.00 0.00 37 1012.3
20260507045540 40 315 0.0 1.7 0.00 0.00 0.00 37 1012.2
20260507045036 39 315 0.9 1.7 0.00 0.00 0.00 38 1012.1
20260507044536 39 315 0.9 1.7 0.00 0.00 0.00 38 1012.3
20260507044136 38 315 0.0 1.7 0.00 0.00 0.00 38 1012.3
20260507043539 38 315 0.0 0.0 0.00 0.00 0.00 37 1012.4
20260507043053 39 315 0.0 0.0 0.00 0.00 0.00 37 1012.3
20260507042539 39 315 0.0 0.9 0.00 0.00 0.00 36 1012.3
20260507042042 39 315 0.0 1.7 0.00 0.00 0.00 37 1012.3
20260507041538 38 315 0.0 1.7 0.00 0.00 0.00 37 1012.3
20260507041037 39 315 0.0 1.7 0.00 0.00 0.00 36 1012.4
20260507040537 39 315 0.0 0.0 0.00 0.00 0.00 36 1012.4
20260507040039 39 315 0.0 0.0 0.00 0.00 0.00 36 1012.4
20260507035537 39 315 0.0 0.0 0.00 0.00 0.00 36 1012.5
20260507035036 40 315 0.0 0.0 0.00 0.00 0.00 36 1012.4
20260507034537 40 315 0.0 0.0 0.00 0.00 0.00 35 1012.6
20260507034136 40 315 0.0 0.0 0.00 0.00 0.00 35 1012.5
20260507033534 40 315 0.0 0.9 0.00 0.00 0.00 36 1012.6
20260507033034 39 315 0.0 0.9 0.00 0.00 0.00 36 1012.7
20260507032533 39 317 0.0 0.0 0.00 0.00 0.00 36 1012.5
20260507032033 39 317 0.0 0.0 0.00 0.00 0.00 36 1012.6
20260507031532 40 317 0.0 1.7 0.00 0.00 0.00 35 1012.6
20260507031032 40 317 0.0 1.7 0.00 0.00 0.00 35 1012.6
20260507030536 39 317 0.9 1.7 0.00 0.00 0.00 35 1012.6
20260507030132 39 317 0.9 1.7 0.00 0.00 0.00 35 1012.7
20260507025530 39 317 0.9 1.7 0.00 0.00 0.00 35 1012.7
20260507025032 40 317 0.9 1.7 0.00 0.00 0.00 35 1012.7
20260507024530 40 317 0.9 2.6 0.00 0.00 0.00 34 1012.6
20260507024030 42 317 1.7 2.6 0.00 0.00 0.00 33 1012.5
20260507023034 43 316 0.0 0.0 0.00 0.00 0.00 34 1012.6
20260507022531 44 311 0.0 0.0 0.00 0.00 0.00 33 1012.7
20260507022035 44 311 0.0 0.0 0.00 0.00 0.00 32 1012.7
20260507021532 45 311 0.0 0.0 0.00 0.00 0.00 31 1012.7
20260507021033 46 311 0.0 0.0 0.00 0.00 0.00 31 1012.7
20260507020530 47 311 0.0 0.0 0.00 0.00 0.00 29 1012.7
20260507020045 48 311 0.0 0.0 0.00 0.00 0.00 28 1012.7
20260507015529 49 311 0.0 0.9 0.00 0.00 0.00 27 1012.8
20260507015030 50 311 0.0 0.9 0.00 0.00 0.00 27 1012.7
20260507014533 52 311 0.0 0.9 0.00 0.00 0.00 26 1012.7
20260507014129 53 311 0.0 2.6 0.00 0.00 0.00 25 1012.8
20260507013525 53 311 0.0 2.6 0.00 0.00 0.00 25 1012.7
20260507013026 53 311 0.9 2.6 0.00 0.00 0.00 24 1012.8
20260507012524 54 310 0.0 3.5 0.00 0.00 0.00 24 1012.7
20260507012024 53 310 0.0 4.3 0.00 0.00 0.00 24 1012.7
20260507011535 53 301 1.7 4.3 0.00 0.00 0.00 24 1012.8
20260507011023 54 303 1.7 4.3 0.00 0.00 0.00 23 1012.7
20260507010523 55 322 0.0 3.5 0.00 0.00 0.00 23 1012.8
20260507010026 56 312 0.9 7.0 0.00 0.00 0.00 23 1012.8
20260507005523 56 313 1.7 7.0 0.00 0.00 0.00 22 1012.8
20260507005021 56 360 2.6 5.2 0.00 0.00 0.00 22 1012.9
20260507004521 56 13 2.6 5.2 0.00 0.00 0.00 22 1012.9
20260507004122 56 301 3.5 8.7 0.00 0.00 0.00 22 1012.9
20260507003522 56 302 3.5 8.7 0.00 0.00 0.00 22 1013.1
20260507003021 57 315 2.6 11.3 0.00 0.00 0.00 22 1012.9
20260507002522 56 277 3.5 11.3 0.00 0.00 0.00 22 1013.0
20260507002020 57 13 3.5 5.2 0.00 0.00 0.00 22 1013.0
20260507001545 57 319 3.5 7.8 0.00 0.00 0.00 22 1013.1
20260507001024 57 9 2.6 7.8 0.00 0.00 0.00 22 1013.1
20260507000519 57 279 1.7 8.7 0.00 0.00 0.00 22 1013.1
20260507000023 57 316 4.3 9.6 0.00 0.00 0.00 22 1013.2
20260506235521 57 293 2.6 12.2 0.00 0.00 0.00 23 1013.2
20260506235018 57 12 5.2 12.2 0.00 0.00 0.00 23 1013.1
20260506234518 57 284 2.6 7.8 0.00 0.00 0.00 22 1013.2
20260506234117 58 287 3.5 13.0 0.00 0.00 0.00 23 1013.3
20260506233520 58 259 2.6 13.0 0.00 0.00 0.00 23 1013.2
20260506233020 57 48 3.5 12.2 0.00 0.00 0.00 23 1013.4
20260506232519 57 19 4.3 12.2 0.00 0.00 0.00 22 1013.3
20260506232018 57 315 3.5 8.7 0.00 0.00 0.00 22 1013.4
20260506231519 57 259 3.5 8.7 0.00 0.00 0.00 22 1013.3
20260506231021 57 300 3.5 10.4 0.00 0.00 0.00 22 1013.4
20260506230520 58 319 5.2 11.3 0.00 0.00 0.00 21 1013.4
20260506230017 58 331 4.3 11.3 0.00 0.00 0.00 22 1013.3
20260506225516 58 23 3.5 7.8 0.00 0.00 0.00 20 1013.3
20260506225018 58 303 2.6 7.8 0.00 0.00 0.00 21 1013.5
20260506224516 58 333 2.6 10.4 0.00 0.00 0.00 22 1013.4
20260506224114 57 236 4.3 9.6 0.00 0.00 0.00 21 1013.6
20260506223512 57 311 5.2 9.6 0.00 0.00 0.00 21 1013.6
20260506223012 57 256 5.2 9.6 0.00 0.00 0.00 23 1013.6
20260506222516 56 226 2.6 12.2 0.00 0.00 0.00 22 1013.5
20260506222010 56 250 4.3 12.2 0.00 0.00 0.00 22 1013.7
20260506221510 57 239 5.2 15.6 0.00 0.00 0.00 22 1013.8
20260506221009 57 259 7.8 15.6 0.00 0.00 0.00 21 1013.9
20260506220508 57 258 5.2 11.3 0.00 0.00 0.00 22 1013.9
20260506220008 57 302 4.3 9.6 0.00 0.00 0.00 22 1014.0
20260506215507 56 272 2.6 9.6 0.00 0.00 0.00 22 1014.0
20260506215007 57 303 6.1 11.3 0.00 0.00 0.00 21 1014.2
20260506214507 57 313 6.1 11.3 0.00 0.00 0.00 23 1014.3
20260506214106 57 271 7.0 12.2 0.00 0.00 0.00 23 1014.4
20260506213510 57 257 7.0 12.2 0.00 0.00 0.00 22 1014.6
20260506213006 57 242 4.3 9.6 0.00 0.00 0.00 21 1014.7
20260506212506 56 294 5.2 13.0 0.00 0.00 0.00 22 1014.8
20260506212009 56 265 6.1 13.0 0.00 0.00 0.00 22 1014.8
20260506211505 56 234 2.6 10.4 0.00 0.00 0.00 22 1014.8
20260506211005 57 290 4.3 10.4 0.00 0.00 0.00 22 1015.0
20260506210508 57 296 4.3 12.2 0.00 0.00 0.00 22 1015.0
20260506210007 56 279 6.1 12.2 0.00 0.00 0.00 23 1015.2
20260506205502 56 5 4.3 9.6 0.00 0.00 0.00 23 1015.1
20260506205002 56 220 3.5 14.8 0.00 0.00 0.00 21 1015.2
20260506204501 56 237 7.8 14.8 0.00 0.00 0.00 23 1015.4
20260506204102 55 255 1.7 11.3 0.00 0.00 0.00 22 1015.4
20260506203506 55 255 1.7 11.3 0.00 0.00 0.00 22 1015.3
20260506203008 55 311 7.0 11.3 0.00 0.00 0.00 23 1015.5
20260506202504 55 257 2.6 13.0 0.00 0.00 0.00 24 1015.5
20260506202004 55 305 4.3 13.0 0.00 0.00 0.00 23 1015.8
20260506201603 55 261 3.5 10.4 0.00 0.00 0.00 23 1015.7
20260506201001 54 278 1.7 9.6 0.00 0.00 0.00 24 1015.8
20260506200501 55 320 4.3 13.0 0.00 0.00 0.00 24 1016.0